Temperature
1 1 0 -0 -1 -2 -2 0 1 2 1 1 1 -1 -1 -2 -2 -3 -3 -4 -4 -3 -3 -3 -3 -3 -3 -3 -2 -2 -2 -2 -2 -2 -2 -2 -2 -2 -2 -2 -1 -1 -1 -1
-1 -0 -1 -1 -1 -1 -2 -2 -1 -1 -0 0 -2 -2 -3 -3 -3 -4 -4 -4 -4 -4 -4 -3 -3 -3 -3 -3 -3 -3 -3 -3 -3 -3 -3 -3 -3 -3 -2 -2 -2 -2 -1 -1
1 -0 -1 0 -1 -2 -2 -2 -2 -1 -0 -1 -2 -3 -4 -4 -4 -4 -4 -4 -4 -4 -4 -4 -4 -4 -4 -3 -3 -3 -3 -3 -3 -3 -3 -3 -3 -3 -3 -3 -2 -2 -2 -2
-0 -0 0 2 -2 -3 -3 -3 -3 -3 -3 -3 -4 -4 -5 -4 -5 -4 -4 -5 -5 -5 -4 -4 -4 -4 -4 -4 -4 -4 -4 -4 -4 -4 -3 -4 -3 -3 -3 -3 -3 -3 -2 -2
-1 0 1 1 -2 -3 -3 -2 -3 -4 -4 -4 -5 -5 -4 -4 -5 -5 -5 -5 -5 -5 -5 -5 -4 -4 -4 -4 -4 -4 -4 -4 -4 -4 -4 -4 -4 -4 -4 -3 -3 -3 -3 -3
-2 -1 0 1 -3 -4 -3 -1 -3 -5 -5 -5 -5 -3 -3 -5 -5 -6 -5 -5 -5 -5 -5 -5 -5 -5 -5 -4 -4 -4 -5 -5 -4 -4 -4 -4 -4 -4 -4 -4 -4 -4 -4 -4
-2 -1 0 -1 -5 -4 -1 -1 -4 -5 -5 -6 -6 -5 -6 -6 -6 -6 -6 -6 -6 -6 -6 -6 -5 -5 -5 -5 -5 -5 -5 -5 -5 -5 -5 -5 -4 -4 -4 -4 -4 -4 -4 -4
-3 -2 -1 -4 -4 -3 -2 -4 -5 -6 -6 -6 -6 -6 -7 -7 -7 -7 -7 -6 -6 -6 -6 -6 -6 -6 -6 -6 -6 -6 -6 -5 -5 -5 -5 -5 -5 -5 -5 -5 -5 -5 -5 -4
-2 -1 -3 -5 -5 -5 -5 -6 -6 -6 -6 -7 -7 -7 -7 -7 -7 -7 -7 -7 -7 -7 -6 -6 -6 -6 -6 -6 -6 -6 -6 -6 -6 -6 -6 -6 -6 -5 -5 -5 -5 -5 -5 -5
-4 -3 -4 -5 -5 -6 -6 -6 -6 -7 -7 -7 -7 -7 -8 -8 -7 -7 -7 -7 -7 -7 -7 -7 -7 -7 -7 -7 -7 -7 -7 -7 -6 -6 -6 -6 -6 -6 -6 -6 -6 -6 -6 -6
-4 -4 -5 -6 -6 -6 -6 -7 -7 -7 -7 -7 -8 -8 -8 -8 -8 -8 -8 -8 -8 -8 -8 -7 -7 -7 -8 -7 -7 -7 -7 -7 -7 -7 -7 -7 -7 -7 -7 -7 -7 -6 -6 -6
-3 -5 -6 -6 -6 -7 -7 -7 -8 -8 -8 -8 -8 -8 -8 -8 -8 -8 -8 -8 -8 -8 -8 -8 -8 -8 -8 -8 -8 -8 -8 -8 -8 -8 -8 -8 -8 -8 -7 -7 -7 -7 -7 -7
-6 -6 -7 -7 -7 -8 -8 -8 -8 -8 -8 -8 -8 -8 -9 -9 -9 -9 -9 -9 -9 -8 -8 -8 -9 -8 -8 -8 -8 -8 -8 -8 -8 -8 -8 -8 -8 -8 -8 -8 -8 -8 -8 -8
-7 -7 -8 -8 -8 -8 -8 -8 -8 -9 -9 -9 -9 -9 -9 -9 -9 -9 -9 -9 -9 -9 -9 -9 -9 -9 -9 -9 -9 -9 -9 -9 -9 -9 -9 -9 -9 -9 -9 -9 -9 -9 -8 -8
-8 -8 -8 -8 -9 -9 -9 -9 -9 -9 -9 -9 -9 -9 -9 -9 -9 -9 -9 -9 -9 -9 -10 -10 -10 -9 -9 -9 -9 -9 -9 -9 -9 -9 -9 -9 -9 -9 -9 -9 -9 -9 -9 -9
-8 -9 -9 -9 -9 -9 -9 -9 -9 -10 -10 -10 -10 -10 -10 -10 -10 -10 -10 -10 -10 -10 -10 -10 -10 -10 -10 -10 -10 -10 -10 -10 -10 -10 -10 -10 -10 -10 -10 -10 -10 -10 -10 -10
-9 -9 -9 -9 -9 -9 -10 -10 -10 -10 -10 -10 -10 -10 -10 -10 -10 -10 -10 -10 -10 -10 -10 -10 -10 -10 -10 -10 -10 -10 -10 -10 -10 -10 -10 -10 -10 -10 -10 -10 -10 -10 -10 -10
-9 -9 -10 -10 -10 -10 -10 -10 -10 -10 -10 -10 -10 -10 -10 -10 -10 -10 -10 -10 -10 -11 -11 -11 -11 -11 -11 -11 -11 -11 -11 -11 -11 -11 -11 -11 -11 -11 -11 -11 -11 -11 -11 -11
-10 -10 -10 -10 -10 -10 -10 -10 -10 -10 -10 -11 -11 -11 -11 -11 -11 -11 -11 -11 -11 -11 -11 -11 -11 -11 -11 -11 -11 -11 -11 -11 -11 -11 -11 -11 -11 -11 -11 -11 -11 -11 -11 -11
-10 -10 -10 -10 -10 -10 -10 -10 -11 -11 -11 -11 -11 -11 -11 -11 -11 -11 -11 -11 -11 -12 -11 -11 -12 -11 -11 -11 -11 -11 -11 -11 -11 -11 -12 -12 -12 -12 -12 -12 -12 -12 -12 -11
-10 -10 -10 -10 -11 -11 -11 -11 -11 -11 -11 -11 -11 -11 -11 -11 -12 -12 -12 -12 -12 -12 -12 -12 -12 -12 -12 -12 -12 -12 -12 -12 -12 -12 -12 -12 -12 -12 -12 -12 -12 -12 -12 -12
-11 -11 -11 -11 -11 -11 -11 -11 -11 -11 -11 -11 -11 -12 -12 -12 -12 -12 -12 -12 -12 -12 -12 -12 -12 -12 -12 -12 -12 -12 -12 -12 -12 -12 -12 -12 -12 -12 -12 -12 -12 -12 -12 -12
-11 -11 -11 -11 -11 -12 -11 -11 -12 -12 -12 -12 -12 -12 -12 -12 -12 -12 -12 -12 -12 -12 -12 -12 -12 -12 -12 -12 -12 -12 -12 -12 -12 -12 -12 -13 -13 -13 -13 -13 -12 -12 -12 -12
-11 -12 -12 -12 -12 -12 -12 -12 -12 -12 -12 -12 -12 -12 -12 -12 -12 -13 -13 -13 -13 -13 -13 -13 -13 -13 -13 -13 -13 -13 -13 -13 -13 -13 -13 -13 -13 -13 -13 -13 -13 -13 -13 -13
-12 -12 -12 -12 -12 -12 -12 -12 -12 -12 -12 -12 -12 -13 -13 -13 -13 -13 -13 -13 -13 -13 -13 -13 -13 -13 -13 -13 -13 -13 -13 -13 -13 -13 -13 -13 -13 -13 -13 -13 -13 -13 -13 -13
-12 -12 -12 -12 -13 -13 -13 -13 -13 -13 -13 -13 -13 -13 -13 -13 -13 -13 -13 -13 -13 -13 -13 -13 -13 -13 -13 -13 -13 -13 -13 -13 -13 -13 -13 -13 -13 -13 -13 -13 -13 -13 -13 -13
-12 -12 -13 -13 -13 -13 -13 -13 -13 -13 -13 -13 -13 -13 -13 -13 -13 -13 -13 -13 -13 -13 -13 -13 -13 -13 -13 -13 -13 -13 -13 -13 -13 -13 -13 -13 -13 -13 -13 -13 -13 -13 -13 -13
Wind_Speed
11 10 7 9 9 8 10 11 11 13 13 14 12 11 12 11 10 10 9 8 8 7 7 6 5 4 4 4 4 3 2 2 3 3 3 3 3 3 3 4 4 4 4 4
7 7 7 9 11 12 12 12 13 16 17 12 10 9 10 11 10 10 10 10 8 8 7 6 5 5 4 4 4 3 3 3 3 3 3 3 3 3 3 4 4 4 4 4
7 4 6 9 8 9 7 7 8 11 9 8 10 11 11 11 11 11 11 10 9 8 7 6 5 5 5 5 4 3 3 3 3 3 3 3 3 3 4 4 4 4 4 4
5 3 7 3 2 4 6 6 7 8 8 9 10 11 9 8 9 11 11 9 8 6 6 6 5 5 4 4 3 3 4 3 3 3 3 3 3 4 4 3 3 4 4 5
3 5 8 4 2 2 4 6 4 7 10 10 10 9 6 5 7 9 9 8 7 6 5 5 5 5 4 4 4 4 4 4 4 4 4 4 4 4 4 3 4 4 4 5
4 5 6 3 1 1 2 4 1 3 7 8 7 7 7 8 9 9 8 7 6 6 5 5 5 4 3 4 4 4 5 5 4 4 4 4 4 4 4 4 4 4 4 4
7 7 8 2 0 2 3 4 3 4 5 5 5 6 7 9 9 8 8 7 7 5 5 5 5 4 4 4 5 5 5 5 4 4 4 4 4 3 3 3 3 4 4 4
5 6 7 2 2 3 4 3 3 4 5 5 6 7 7 7 8 8 7 7 6 5 5 5 5 4 4 5 6 5 5 4 4 4 3 3 3 3 3 3 4 4 4 4
7 6 3 2 4 4 3 4 4 5 5 5 6 6 7 7 7 7 7 6 6 5 6 6 5 5 5 6 6 5 5 4 4 4 4 3 3 3 2 2 3 3 3 3
6 9 7 6 5 5 5 5 6 5 5 4 5 6 7 6 6 6 6 6 6 6 6 6 6 6 6 6 6 5 4 4 4 3 3 3 3 2 2 2 3 3 3 3
8 8 6 4 5 6 6 5 5 5 5 5 5 6 6 6 6 6 6 6 6 5 6 7 7 6 6 6 6 5 5 4 4 3 3 3 3 2 3 3 3 3 3 3
6 4 5 7 6 6 6 6 6 5 5 5 5 6 6 6 6 6 6 6 6 6 6 7 7 6 7 6 5 5 5 5 4 3 3 3 3 2 3 3 4 4 3 4
6 6 6 7 6 5 5 6 5 5 6 6 5 5 6 6 5 6 5 5 6 6 6 6 6 6 7 6 5 5 5 4 4 3 3 3 2 2 3 3 3 3 4 4
5 4 5 6 6 5 5 5 5 5 5 5 5 5 5 5 6 5 5 6 6 5 5 6 6 6 7 6 5 5 5 4 4 3 3 3 2 2 2 3 3 3 3 4
4 4 5 6 5 4 4 3 4 4 5 5 4 5 5 5 5 6 5 5 5 5 5 5 6 6 7 6 6 5 4 4 4 3 3 3 2 2 2 2 2 3 3 3
5 4 4 4 4 4 4 4 4 5 5 5 5 5 5 5 5 5 4 4 4 5 5 6 6 7 6 6 5 4 4 5 5 3 3 2 2 2 2 2 2 2 2 3
3 4 4 4 5 5 4 4 4 5 5 5 5 5 5 4 4 4 4 4 4 5 5 5 6 6 6 5 5 4 4 4 5 3 3 2 2 2 2 2 2 2 3 3
4 4 4 5 5 5 5 4 4 4 4 5 4 4 3 4 4 5 5 5 5 5 5 5 6 6 6 5 4 4 3 3 3 3 3 3 3 2 3 3 3 3 3 3
4 3 4 4 4 4 4 4 4 4 4 3 3 3 4 4 4 5 5 5 5 6 6 6 8 6 6 6 5 3 3 3 3 3 3 3 3 3 3 3 3 3 3 3
4 4 3 3 3 2 3 3 4 3 3 3 3 3 4 4 4 4 4 4 4 5 6 6 6 5 5 5 5 4 3 3 3 3 3 3 3 3 3 3 3 4 3 3
5 4 4 3 3 3 3 3 3 3 4 3 3 4 4 5 4 4 4 5 5 5 5 6 5 5 5 5 5 4 4 3 3 3 3 3 3 4 4 4 4 4 4 4
4 4 4 3 3 3 4 3 3 3 4 4 4 4 4 5 5 5 4 4 5 7 5 4 4 6 6 6 4 4 4 4 4 3 3 4 4 4 4 4 4 4 4 4
4 4 4 3 3 4 4 4 3 3 4 4 4 4 4 5 4 4 5 4 5 6 5 4 6 8 8 5 4 4 4 5 4 4 4 4 4 4 5 5 5 5 5 5
4 4 4 3 3 3 4 5 4 4 4 4 4 5 5 4 4 4 4 7 7 7 5 6 8 8 7 4 4 4 4 4 5 5 5 5 5 5 5 5 5 5 5 6
3 3 3 3 3 3 4 5 5 5 5 4 5 5 4 4 4 5 5 6 7 7 5 6 8 8 5 4 4 5 5 5 5 5 5 5 5 5 5 5 5 6 6 6
3 3 3 3 3 3 4 4 4 4 4 5 5 5 4 4 5 5 5 5 6 7 5 5 5 6 5 5 5 5 5 5 6 5 5 5 6 6 6 6 7 6 6 7
3 3 3 3 3 3 3 4 4 4 5 5 6 5 5 5 5 5 5 5 5 5 5 5 5 5 5 5 5 5 5 5 5 5 5 5 5 6 6 7 6 6 7 7
Wind_Direction
267 275 267 259 257 237 228 246 256 271 276 287 306 313 315 317 317 314 310 308 303 304 306 307 305 305 305 304 303 293 273 270 276 277 272 268 264 260 251 241 239 234 232 234
275 262 261 266 263 248 246 253 258 271 279 294 312 315 316 317 317 315 312 308 306 307 306 306 305 304 301 300 303 295 279 276 280 278 277 272 263 255 251 244 240 236 235 234
275 288 283 271 250 230 236 240 241 257 277 313 316 318 318 316 316 314 312 312 311 307 301 303 303 300 298 300 305 303 294 295 294 283 280 278 275 264 256 256 244 239 241 239
280 293 261 282 104 206 235 255 241 259 284 302 308 310 306 310 315 315 314 315 315 313 313 314 308 305 306 310 310 308 304 305 304 292 288 288 283 275 264 258 248 245 244 242
251 269 275 274 196 204 238 279 244 260 290 307 318 309 308 329 326 319 318 316 315 314 315 320 318 311 314 322 323 319 314 311 309 295 287 285 280 276 264 255 250 248 248 243
236 256 264 303 86 221 229 269 268 285 299 313 325 319 326 343 333 326 325 326 326 326 327 328 325 322 319 324 324 319 314 310 309 301 285 280 280 279 267 255 253 253 253 252
237 248 265 310 150 186 251 303 335 298 297 300 296 294 313 324 329 330 328 330 333 334 334 331 330 330 328 327 322 319 318 315 314 308 299 289 288 286 270 256 252 249 252 255
220 237 260 128 152 220 284 322 298 296 296 292 289 300 310 317 323 329 331 334 337 337 334 336 340 340 336 328 324 326 325 324 323 319 313 308 300 294 279 257 250 249 250 256
217 241 300 200 235 271 303 292 296 300 300 293 293 300 310 315 318 324 326 329 332 332 330 336 340 335 327 323 325 326 328 326 325 325 321 316 303 295 291 278 261 249 247 250
254 260 269 262 264 282 281 283 295 296 293 286 286 296 305 311 317 321 323 325 329 332 332 332 333 331 323 323 325 323 325 326 324 319 320 321 312 301 293 285 271 255 246 248
255 273 290 266 275 289 293 293 297 299 293 286 288 297 303 306 311 315 319 323 326 326 322 322 328 327 327 330 329 326 325 325 322 317 314 311 310 306 295 290 289 273 256 256
259 272 273 287 295 297 293 292 293 295 299 303 296 294 302 305 307 311 314 319 322 321 320 322 327 328 331 333 330 326 325 324 321 317 312 308 306 307 307 297 312 309 295 272
265 289 291 290 297 295 292 292 292 289 291 297 301 300 302 305 309 311 314 318 316 315 317 321 325 328 331 332 328 323 317 317 316 314 310 309 306 308 313 315 324 328 326 312
277 284 285 289 297 301 299 299 298 298 299 298 304 309 309 309 310 314 316 315 316 317 320 322 324 326 329 330 327 323 319 316 314 311 311 309 305 303 305 313 320 322 327 335
294 287 278 290 297 303 306 307 310 309 312 313 313 312 311 309 308 310 315 320 324 325 325 327 328 328 330 330 329 326 323 322 317 313 309 306 300 300 302 306 309 316 322 333
305 308 296 294 298 309 317 315 305 303 308 308 311 312 311 307 307 310 319 326 327 323 322 323 322 324 327 326 326 325 321 322 321 314 311 307 305 302 303 304 305 310 318 322
294 302 301 301 298 299 298 295 291 293 298 300 304 309 312 316 320 325 327 327 321 316 319 321 321 324 327 326 325 321 319 318 321 318 320 316 309 303 301 297 298 301 306 317
274 274 272 275 281 285 289 292 292 294 293 298 305 310 311 311 311 315 322 328 330 332 331 329 328 330 331 331 327 323 319 320 323 324 321 318 312 307 306 303 299 296 297 303
315 302 298 292 289 282 281 286 290 294 295 299 302 299 298 300 306 314 322 328 329 327 329 330 332 334 330 330 333 326 321 319 319 319 317 317 315 312 306 302 301 301 300 297
334 325 317 318 319 305 295 295 298 300 302 299 298 303 307 310 315 316 315 311 310 312 316 322 328 329 327 327 329 322 315 309 306 306 305 302 300 300 297 296 297 297 296 294
334 329 325 325 327 326 316 311 306 307 310 304 292 291 297 304 311 311 309 309 315 322 321 320 326 323 322 324 325 323 317 306 299 293 290 289 289 289 289 289 289 289 288 287
333 331 329 329 328 327 329 323 313 310 312 309 303 301 303 306 309 305 294 290 303 318 322 315 318 319 322 323 319 318 314 308 297 290 284 281 280 281 282 285 284 284 283 282
329 327 326 326 323 324 329 328 322 317 310 307 304 302 299 296 296 297 301 306 308 313 317 309 315 318 320 320 313 308 305 302 296 286 281 278 274 274 276 279 279 279 279 280
331 331 330 331 336 334 330 329 326 320 311 305 302 298 296 298 299 294 294 303 311 311 309 309 317 321 322 316 307 304 302 298 296 292 285 279 274 271 271 272 273 274 274 276
327 329 332 333 329 322 319 321 323 324 324 319 315 312 303 295 293 301 305 304 308 311 309 310 316 319 317 308 305 302 301 297 296 295 291 286 279 274 271 270 270 272 273 273
326 321 316 314 311 313 317 318 320 321 322 320 319 317 315 312 306 304 305 306 305 309 310 307 309 310 308 305 302 301 300 300 300 295 292 290 284 278 273 270 270 269 270 270
323 321 318 322 326 323 317 315 314 315 316 314 312 315 317 316 315 314 313 311 310 310 309 307 307 305 304 304 303 302 300 298 296 295 294 292 288 282 278 275 272 271 270 270
Height
1521 1519 1521 1520 1521 1523 1522 1512 1505 1495 1497 1493 1494 1495 1493 1490 1487 1484 1481 1478 1475 1472 1470 1467 1466 1464 1463 1462 1461 1461 1460 1459 1458 1459 1459 1459 1459 1460 1460 1461 1462 1462 1464 1465
1521 1519 1520 1518 1514 1515 1516 1513 1509 1503 1498 1494 1495 1494 1491 1489 1486 1482 1479 1476 1473 1470 1468 1466 1464 1463 1462 1461 1460 1459 1458 1457 1456 1456 1456 1456 1456 1456 1457 1457 1457 1459 1460 1461
1511 1516 1516 1505 1505 1508 1508 1506 1506 1500 1496 1495 1493 1492 1490 1487 1484 1481 1478 1474 1471 1469 1467 1465 1463 1462 1461 1459 1457 1456 1455 1454 1454 1454 1453 1453 1453 1453 1453 1453 1454 1455 1456 1457
1515 1514 1506 1497 1505 1505 1504 1502 1503 1500 1497 1496 1494 1491 1488 1486 1483 1479 1476 1473 1470 1468 1466 1464 1463 1461 1459 1457 1456 1454 1453 1452 1452 1451 1450 1450 1449 1449 1450 1450 1450 1451 1452 1453
1516 1508 1497 1496 1503 1504 1503 1498 1498 1498 1496 1494 1492 1488 1484 1483 1481 1478 1475 1471 1469 1467 1465 1463 1461 1459 1457 1455 1454 1452 1451 1450 1449 1448 1447 1447 1447 1447 1447 1447 1447 1448 1449 1449
1516 1509 1498 1493 1502 1502 1503 1494 1495 1496 1494 1493 1491 1485 1482 1481 1479 1476 1473 1470 1467 1465 1463 1462 1460 1458 1456 1454 1452 1450 1449 1448 1447 1446 1445 1444 1444 1444 1444 1444 1444 1444 1445 1445
1514 1508 1495 1499 1501 1502 1497 1491 1494 1493 1493 1492 1490 1488 1485 1480 1477 1475 1472 1469 1467 1464 1462 1460 1458 1456 1454 1452 1450 1449 1447 1446 1444 1443 1442 1441 1441 1441 1441 1440 1440 1441 1441 1441
1512 1508 1499 1500 1500 1499 1495 1494 1493 1491 1490 1489 1487 1484 1482 1479 1476 1473 1471 1468 1466 1463 1461 1459 1457 1455 1452 1450 1449 1447 1445 1443 1442 1441 1440 1439 1438 1438 1438 1437 1437 1437 1437 1437
1505 1500 1497 1497 1496 1495 1494 1493 1491 1490 1488 1487 1484 1481 1479 1477 1474 1472 1470 1467 1465 1462 1460 1458 1456 1453 1451 1449 1447 1445 1443 1441 1440 1439 1438 1436 1436 1435 1434 1434 1433 1433 1434 1434
1503 1496 1495 1495 1493 1493 1492 1490 1489 1487 1486 1484 1482 1479 1477 1475 1472 1470 1468 1466 1463 1461 1458 1456 1454 1452 1450 1448 1445 1443 1441 1439 1438 1436 1435 1434 1433 1432 1432 1431 1430 1430 1430 1430
1498 1494 1493 1491 1491 1490 1489 1487 1486 1484 1483 1481 1479 1477 1475 1472 1470 1468 1466 1464 1462 1459 1457 1455 1452 1450 1448 1446 1443 1441 1439 1437 1436 1435 1433 1432 1431 1430 1429 1429 1428 1427 1427 1427
1492 1491 1492 1489 1488 1487 1486 1484 1483 1481 1480 1478 1477 1475 1473 1470 1468 1466 1463 1461 1459 1457 1455 1452 1450 1448 1446 1444 1442 1439 1437 1436 1434 1433 1431 1430 1429 1428 1427 1426 1425 1424 1424 1424
1491 1489 1488 1486 1485 1484 1483 1481 1480 1479 1477 1476 1474 1472 1470 1468 1465 1463 1461 1459 1457 1455 1452 1450 1448 1446 1444 1442 1440 1438 1436 1434 1433 1431 1430 1428 1427 1426 1424 1424 1423 1422 1422 1421
1488 1487 1485 1484 1483 1481 1480 1478 1477 1475 1474 1473 1471 1469 1467 1465 1463 1461 1459 1457 1455 1453 1450 1448 1446 1444 1442 1440 1438 1436 1434 1433 1431 1430 1428 1427 1425 1424 1423 1422 1421 1420 1419 1419
1486 1484 1483 1481 1480 1478 1477 1475 1474 1472 1471 1470 1468 1467 1465 1462 1460 1458 1457 1455 1453 1451 1449 1447 1444 1442 1441 1438 1436 1435 1433 1431 1430 1428 1427 1425 1424 1423 1422 1420 1419 1419 1418 1417
1482 1481 1480 1478 1477 1475 1474 1472 1471 1469 1468 1467 1465 1464 1462 1460 1458 1457 1455 1453 1451 1449 1447 1445 1443 1441 1439 1437 1435 1433 1431 1430 1428 1427 1425 1424 1423 1421 1420 1419 1418 1417 1416 1416
1480 1478 1477 1475 1474 1472 1471 1470 1469 1467 1466 1464 1463 1461 1460 1458 1456 1454 1453 1451 1450 1448 1446 1443 1441 1439 1437 1435 1434 1432 1430 1428 1427 1425 1424 1422 1421 1420 1419 1418 1417 1416 1416 1416
1478 1477 1475 1473 1472 1470 1468 1467 1466 1465 1463 1462 1460 1459 1457 1456 1454 1452 1451 1450 1448 1446 1444 1442 1440 1438 1436 1434 1432 1430 1429 1427 1425 1424 1423 1421 1420 1419 1418 1417 1416 1415 1415 1414
1475 1474 1473 1471 1470 1468 1466 1465 1464 1462 1461 1460 1458 1456 1455 1454 1452 1451 1449 1448 1446 1443 1442 1440 1438 1436 1434 1432 1431 1429 1427 1426 1424 1423 1421 1420 1419 1418 1417 1416 1415 1414 1413 1413
1473 1472 1470 1469 1468 1466 1465 1463 1462 1460 1459 1457 1456 1454 1453 1452 1451 1449 1447 1446 1444 1442 1440 1438 1436 1434 1432 1431 1429 1427 1426 1424 1423 1421 1420 1419 1417 1416 1415 1414 1413 1412 1411 1411
1472 1470 1469 1467 1466 1464 1463 1461 1460 1458 1457 1455 1454 1452 1451 1450 1449 1447 1445 1443 1442 1441 1438 1436 1434 1432 1431 1429 1427 1425 1424 1422 1421 1419 1418 1417 1415 1414 1413 1412 1411 1410 1409 1409
1471 1469 1467 1466 1464 1463 1461 1460 1458 1456 1455 1453 1452 1450 1449 1448 1446 1445 1444 1442 1440 1438 1436 1434 1432 1431 1429 1427 1425 1423 1421 1420 1418 1417 1416 1414 1413 1412 1411 1410 1409 1408 1407 1406
1470 1468 1466 1464 1463 1461 1460 1458 1456 1455 1453 1451 1450 1448 1447 1446 1444 1443 1441 1440 1438 1436 1434 1432 1430 1429 1427 1425 1423 1421 1419 1417 1416 1414 1413 1411 1410 1409 1408 1407 1406 1405 1404 1403
1468 1467 1465 1463 1462 1460 1458 1456 1455 1453 1451 1450 1448 1447 1445 1443 1442 1441 1439 1437 1435 1433 1431 1430 1428 1426 1424 1422 1420 1418 1416 1414 1413 1411 1410 1408 1407 1406 1404 1403 1402 1401 1400 1399
1467 1465 1464 1462 1460 1458 1456 1455 1453 1451 1450 1448 1446 1445 1443 1441 1440 1438 1436 1434 1432 1431 1429 1427 1425 1423 1421 1419 1417 1415 1413 1412 1410 1408 1406 1405 1403 1402 1401 1399 1398 1397 1396 1394
1466 1464 1462 1460 1459 1457 1455 1453 1451 1449 1447 1445 1444 1442 1441 1439 1437 1435 1433 1432 1430 1428 1426 1424 1422 1420 1418 1416 1414 1412 1410 1408 1406 1405 1403 1401 1399 1398 1397 1395 1394 1392 1391 1390
1464 1463 1461 1459 1457 1455 1453 1451 1449 1447 1445 1443 1441 1440 1438 1436 1434 1432 1431 1429 1427 1425 1423 1421 1419 1417 1415 1413 1411 1409 1407 1405 1403 1401 1399 1397 1395 1394 1392 1391 1390 1388 1387 1385